Regional Weather Roundup
Issued by NWS

Home | Current Version | Previous Version | Graphics & Text | Print | Product List | Glossary On
Versions: 1 2 3 4 5 6 7 8 9 10 11 12 13 14 15 16 17 18 19 20 21 22 23 24 25 26 27 28 29 30 31 32 33 34 35 36 37 38 39 40 41 42 43 44 45 46 47 48 49 50
000
ASUS45 KBOU 261907
RWRCO

WEATHER ROUNDUP FOR COLORADO
NATIONAL WEATHER SERVICE DENVER/BOULDER CO
100 PM MDT WED APR 26 2017

NOTE: "FAIR" INDICATES FEW OR NO CLOUDS BELOW 12000 FEET WITH NO
SIGNIFICANT WEATHER AND/OR OBSTRUCTIONS TO VISIBILITY.

COZ001>005-013-030-031-262000-
...NORTHWEST COLORADO...

CITY           SKY/WX    TMP DP  RH WIND       PRES   REMARKS
CRAIG          CLOUDY    48  30  49 W17G24    29.83F
HAYDEN         FAIR      41  27  56 W8        29.83F
MEEKER         PTSUNNY   43  37  79 VRB5      29.85F
MOUNT WERNER   NOT AVBL
STEAMBOAT SPGS CLOUDY    32  31  95 N8        29.86R WCI  25
WALDEN           N/A     41  18  38 W17G25    29.82F
$$

COZ006>008-011-262000-
...WEST CENTRAL VALLEYS...

CITY           SKY/WX    TMP DP  RH WIND       PRES   REMARKS
GRAND JUNCTION PTSUNNY   57  31  37 NW8G17    29.85F
MONTROSE       CLOUDY    50  24  36 S6        29.90F
EAGLE          PTSUNNY   46  27  46 SW9       29.86F
RIFLE          PTSUNNY   53  27  36 W21       29.85F
DELTA          PTSUNNY   59  26  28 SW6       29.87F
NUCLA          PTSUNNY   54  23  30 CALM      29.92F
$$

COZ017>023-064>068-262000-
...SOUTHWEST COLORADO...

CITY           SKY/WX    TMP DP  RH WIND       PRES   REMARKS
DURANGO        FAIR      52  21  29 W22G30    29.88F
CORTEZ         FAIR      53  26  35 VRB6      29.90F
PAGOSA SPRINGS CLOUDY    47  20  35 SW12      29.90F
TELLURIDE      FAIR      39  21  49 W6        29.97F
WOLF CREEK PAS PTSUNNY   27  16  63 SW15G23   30.01S WCI  15
$$

COZ009-010-012-014-032>034-037-058>063-262000-
...CENTRAL COLORADO...

CITY           SKY/WX    TMP DP  RH WIND       PRES   REMARKS
ASPEN          FLURRIES  39  32  76 NE7       29.87F
BUENA VISTA    FAIR      49  10  20 W26       29.82F
COPPER MTN     SNOW      25  19  80 MISG      29.89S VSB 1/4
BERTHOUD PASS  CLOUDY    18   5  57 NW22G41   29.86S WCI   0
COTTONWOOD PAS CLOUDY    41  12  30 N5        29.86S
GUNNISON       FAIR      45  19  35 W22       29.88F
KREMMLING      CLOUDY    52  28  40 W17       29.84F
LEADVILLE      PTSUNNY   32  20  61 W7G17     29.87F HAZE    WCI  26
MONARCH PASS     N/A     21  19  93 W33G40    30.01F WCI   2
SALIDA         CLOUDY    52  12  20 SW21G44   29.88F
SUNLIGHT       LGT SNOW  25  23  93 SW10G17   29.94F VSB 3/4 WCI  15
WILKERSON PASS CLOUDY    32  12  43 NW5       29.90F WCI  27
$$

COZ069>075-262000-
...SAN LUIS VALLEY/SANGRE DE CRISTO MOUNTAINS...

CITY           SKY/WX    TMP DP  RH WIND       PRES   REMARKS
ALAMOSA        PTSUNNY   48  25  40 S10       29.84F
LA VETA PASS   FAIR      36  28  75 SW20G30   29.99F
SAGUACHE       FAIR      50  12  22 NW24G30   29.85F
$$

COZ035-036-038>040-262000-
...NORTHERN COLORADO FRONT RANGE...

CITY           SKY/WX    TMP DP  RH WIND       PRES   REMARKS
DENVER INTL AP FAIR      56  26  31 N9        29.75F
DMNS CITY PARK   N/A     55  21  25 W13G24    29.74S
AURORA         PTSUNNY   55  23  28 W8        29.75F
FRONT RANGE AP PTSUNNY   55  25  30 NE5       29.77F
ERIE MUNI ARPT FAIR      56  28  33 E5        29.75F
BOULDER MUN AP FAIR      54  30  40 N9        29.74F
CENTENNIAL     PTSUNNY   57  26  30 N14G21    29.75F
BROOMFIELD     MOSUNNY   55  25  30 W8        29.76F
FORT COLLINS   FAIR      54  30  40 S7        29.75F
LONGMONT       PTSUNNY   57  30  34 NE3       29.76F HAZE
$$

COZ041-046-047-076>085-087-088-262000-
...PIKES PEAK/PALMER DIVIDE AND SOUTHERN FOOTHILLS...

CITY           SKY/WX    TMP DP  RH WIND       PRES   REMARKS
COLO. SPRINGS  PTSUNNY   50  29  44 SW8       29.80F
A. F. ACADEMY  PTSUNNY   50  30  45 S10       29.78F
SCHRIEVER AFB  FAIR      49  27  41 S8        29.79F
ELLICOTT       FAIR     N/A N/A N/A S5        29.79F
FALCON         FAIR      51  18  27 NE10      29.80F
FORT CARSON    PTSUNNY   49  32  52 S9        29.79F
LIMON          FAIR      52  28  39 NW16G22   29.78F
MONUMENT HILL  PTSUNNY   43  28  56 CALM      29.80F
TRINIDAD       FAIR      51  35  54 MISG      29.82F
$$

COZ042>045-048>051-090-091-262000-
...NORTHEAST COLORADO...

CITY           SKY/WX    TMP DP  RH WIND       PRES   REMARKS
GREELEY ARPT   FAIR      57  31  37 SE7       29.75F
AKRON          FAIR      52  27  38 N12       29.75F
BURLINGTON     NOT AVBL
WRAY           NOT AVBL
STERLING       FAIR      55  30  38 N8G16     29.72F
HOLYOKE        FAIR      54  32  43 N13G20    29.75F
FORT MORGAN    PTSUNNY   56  27  32 NW7       29.75F
$$

COZ086-089-092>099-262000-
...SOUTHEAST COLORADO...

CITY           SKY/WX    TMP DP  RH WIND       PRES   REMARKS
PUEBLO         FAIR      54  35  48 VRB6      29.79F
LA JUNTA       PTSUNNY   55  36  48 NW8       29.80F
LAMAR          FAIR      57  31  37 N20G26    29.76F
SPRINGFIELD      N/A     53  33  46 NW23G35   29.78F
$$



USA.gov is the U.S. government's official web portal to all federal, state and local government web resources and services.